| time (UTC) | temp F | wind direction | speed knots | gust knots | rain 1hr in | rain 24hr in | rain mn in | humidity % | barometer mb |
| 20260902043823 | 0 | 0.0 | 0.0 | 0.00 | 0.00 | 0.00 | 1019.9 | ||
| 20260902043318 | 0 | 0.0 | 0.0 | 0.00 | 0.00 | 0.00 | 1020.1 | ||
| 20260902042821 | 0 | 0.0 | 0.0 | 0.00 | 0.00 | 0.00 | 1020.1 | ||
| 20260902042335 | 0 | 0.0 | 0.0 | 0.00 | 0.00 | 0.00 | 1020.1 | ||
| 20260902041859 | 58 | 208 | 1.7 | 3.5 | 0.00 | 0.00 | 0.00 | 88 | 1020.0 |
| 20260902041319 | 58 | 208 | 1.7 | 3.5 | 0.00 | 0.00 | 0.00 | 88 | 1019.9 |
| 20260902040842 | 58 | 208 | 1.7 | 3.5 | 0.00 | 0.00 | 0.00 | 88 | 1020.0 |
| 20260902040316 | 57 | 204 | 0.9 | 3.5 | 0.00 | 0.00 | 0.00 | 89 | 1020.0 |
| 20260902035828 | 57 | 194 | 0.9 | 3.5 | 0.00 | 0.00 | 0.00 | 89 | 1019.9 |
| 20260902035314 | 57 | 205 | 0.9 | 3.5 | 0.00 | 0.00 | 0.00 | 89 | 1019.9 |
| 20260902034816 | 57 | 204 | 1.7 | 3.5 | 0.00 | 0.00 | 0.00 | 89 | 1019.9 |
| 20260902034312 | 57 | 212 | 0.9 | 3.5 | 0.00 | 0.00 | 0.00 | 88 | 1019.9 |
| 20260902033824 | 57 | 214 | 1.7 | 3.5 | 0.00 | 0.00 | 0.00 | 88 | 1020.0 |
| 20260902033320 | 57 | 172 | 0.9 | 2.6 | 0.00 | 0.00 | 0.00 | 88 | 1020.0 |
| 20260902032815 | 57 | 174 | 0.9 | 2.6 | 0.00 | 0.00 | 0.00 | 88 | 1020.1 |
| 20260902032331 | 57 | 209 | 0.9 | 3.5 | 0.00 | 0.00 | 0.00 | 88 | 1020.1 |
| 20260902031832 | 57 | 204 | 0.9 | 3.5 | 0.00 | 0.00 | 0.00 | 88 | 1020.2 |
| 20260902031328 | 57 | 201 | 1.7 | 3.5 | 0.00 | 0.00 | 0.00 | 88 | 1020.2 |
| 20260902030823 | 57 | 212 | 1.7 | 3.5 | 0.00 | 0.00 | 0.00 | 88 | 1020.3 |
| 20260902030339 | 57 | 200 | 1.7 | 3.5 | 0.00 | 0.00 | 0.00 | 88 | 1020.3 |
| 20260902025839 | 57 | 207 | 1.7 | 3.5 | 0.00 | 0.00 | 0.00 | 88 | 1020.2 |
| 20260902025352 | 57 | 205 | 0.9 | 2.6 | 0.00 | 0.00 | 0.00 | 88 | 1020.3 |
| 20260902024833 | 57 | 207 | 0.9 | 2.6 | 0.00 | 0.00 | 0.00 | 88 | 1020.3 |
| 20260902024328 | 58 | 211 | 0.9 | 1.7 | 0.00 | 0.00 | 0.00 | 88 | 1020.3 |
| 20260902023844 | 58 | 170 | 0.9 | 4.3 | 0.00 | 0.00 | 0.00 | 88 | 1020.2 |
| 20260902023326 | 58 | 207 | 0.9 | 4.3 | 0.00 | 0.00 | 0.00 | 88 | 1020.3 |
| 20260902022822 | 58 | 210 | 0.9 | 2.6 | 0.00 | 0.00 | 0.00 | 88 | 1020.4 |
| 20260902022333 | 58 | 212 | 0.9 | 2.6 | 0.00 | 0.00 | 0.00 | 88 | 1020.4 |
| 20260902021812 | 57 | 207 | 0.9 | 2.6 | 0.00 | 0.00 | 0.00 | 88 | 1020.5 |
| 20260902021350 | 57 | 204 | 0.9 | 2.6 | 0.00 | 0.00 | 0.00 | 88 | 1020.5 |
| 20260902020814 | 57 | 204 | 0.9 | 2.6 | 0.00 | 0.00 | 0.00 | 88 | 1020.5 |
| 20260902020317 | 57 | 208 | 0.9 | 2.6 | 0.00 | 0.00 | 0.00 | 89 | 1020.5 |
| 20260902015830 | 57 | 193 | 0.0 | 1.7 | 0.00 | 0.00 | 0.00 | 89 | 1020.5 |
| 20260902015316 | 57 | 193 | 0.9 | 1.7 | 0.00 | 0.00 | 0.00 | 89 | 1020.5 |
| 20260902014839 | 57 | 193 | 0.0 | 1.7 | 0.00 | 0.00 | 0.00 | 89 | 1020.4 |
| 20260902014333 | 57 | 193 | 0.0 | 1.7 | 0.00 | 0.00 | 0.00 | 89 | 1020.5 |
| 20260902013826 | 57 | 193 | 0.9 | 1.7 | 0.00 | 0.00 | 0.00 | 89 | 1020.4 |
| 20260902013348 | 57 | 193 | 0.0 | 1.7 | 0.00 | 0.00 | 0.00 | 89 | 1020.5 |
| 20260902012823 | 57 | 193 | 0.9 | 1.7 | 0.00 | 0.00 | 0.00 | 89 | 1020.6 |
| 20260902012337 | 57 | 193 | 0.9 | 1.7 | 0.00 | 0.00 | 0.00 | 89 | 1020.5 |
| 20260902011817 | 57 | 193 | 0.9 | 1.7 | 0.00 | 0.00 | 0.00 | 89 | 1020.5 |
| 20260902011313 | 57 | 193 | 0.9 | 1.7 | 0.00 | 0.00 | 0.00 | 89 | 1020.6 |
| 20260902010825 | 57 | 193 | 0.0 | 1.7 | 0.00 | 0.00 | 0.00 | 89 | 1020.6 |
| 20260902010321 | 57 | 193 | 0.9 | 1.7 | 0.00 | 0.00 | 0.00 | 89 | 1020.6 |
| 20260902005830 | 57 | 193 | 0.0 | 0.9 | 0.00 | 0.00 | 0.00 | 89 | 1020.7 |
| 20260902005326 | 57 | 193 | 0.9 | 0.9 | 0.00 | 0.00 | 0.00 | 89 | 1020.8 |
| 20260902004840 | 57 | 193 | 0.0 | 0.9 | 0.00 | 0.00 | 0.00 | 89 | 1020.6 |
| 20260902004322 | 57 | 193 | 0.0 | 0.9 | 0.00 | 0.00 | 0.00 | 89 | 1020.8 |
| 20260902003828 | 57 | 193 | 0.0 | 0.9 | 0.00 | 0.00 | 0.00 | 88 | 1020.8 |
| 20260902003330 | 57 | 193 | 0.0 | 1.7 | 0.00 | 0.00 | 0.00 | 89 | 1020.7 |
| 20260902002825 | 57 | 193 | 0.9 | 0.9 | 0.00 | 0.00 | 0.00 | 89 | 1020.8 |
| 20260902002339 | 57 | 193 | 0.0 | 0.9 | 0.00 | 0.00 | 0.00 | 88 | 1020.9 |
| 20260902001813 | 57 | 193 | 0.0 | 0.9 | 0.00 | 0.00 | 0.00 | 88 | 1020.9 |
| 20260902001316 | 57 | 193 | 0.0 | 0.9 | 0.00 | 0.00 | 0.00 | 88 | 1020.9 |
| 20260902000846 | 57 | 193 | 0.9 | 0.9 | 0.00 | 0.00 | 0.00 | 88 | 1020.8 |
| 20260902000322 | 57 | 193 | 0.0 | 0.9 | 0.00 | 0.00 | 0.00 | 88 | 1020.8 |
| 20260901235833 | 57 | 193 | 0.0 | 0.9 | 0.00 | 0.00 | 0.00 | 88 | 1020.8 |
| 20260901235327 | 57 | 193 | 0.0 | 1.7 | 0.00 | 0.00 | 0.00 | 88 | 1020.6 |
| 20260901234823 | 57 | 193 | 0.9 | 1.7 | 0.00 | 0.00 | 0.00 | 88 | 1020.7 |
| 20260901234326 | 57 | 193 | 0.0 | 1.7 | 0.00 | 0.00 | 0.00 | 88 | 1020.8 |
| 20260901233859 | 57 | 193 | 0.0 | 0.9 | 0.00 | 0.00 | 0.00 | 88 | 1020.8 |
| 20260901233333 | 57 | 193 | 0.0 | 0.9 | 0.00 | 0.00 | 0.00 | 88 | 1020.9 |
| 20260901232813 | 57 | 193 | 0.0 | 0.9 | 0.00 | 0.00 | 0.00 | 88 | 1020.9 |
| 20260901232320 | 57 | 193 | 0.0 | 0.9 | 0.00 | 0.00 | 0.00 | 88 | 1020.8 |
| 20260901231822 | 57 | 193 | 0.0 | 0.9 | 0.00 | 0.00 | 0.00 | 88 | 1020.8 |
| 20260901231346 | 57 | 193 | 0.0 | 0.0 | 0.00 | 0.00 | 0.00 | 88 | 1020.9 |
| 20260901230833 | 57 | 193 | 0.0 | 0.9 | 0.00 | 0.00 | 0.00 | 87 | 1020.8 |
| 20260901230314 | 58 | 193 | 0.0 | 0.9 | 0.00 | 0.00 | 0.00 | 87 | 1020.9 |
| 20260901225827 | 58 | 193 | 0.0 | 0.9 | 0.00 | 0.00 | 0.00 | 87 | 1021.0 |
| 20260901225314 | 58 | 193 | 0.0 | 0.9 | 0.00 | 0.00 | 0.00 | 88 | 1021.0 |
| 20260901224836 | 58 | 193 | 0.9 | 0.9 | 0.00 | 0.00 | 0.00 | 88 | 1021.0 |
| 20260901224351 | 58 | 193 | 0.9 | 1.7 | 0.00 | 0.00 | 0.00 | 88 | 1021.0 |
| 20260901223826 | 58 | 193 | 0.9 | 1.7 | 0.00 | 0.00 | 0.00 | 88 | 1020.9 |
| 20260901223349 | 58 | 211 | 0.0 | 0.9 | 0.00 | 0.00 | 0.00 | 87 | 1021.0 |
| 20260901222823 | 58 | 211 | 0.0 | 0.9 | 0.00 | 0.00 | 0.00 | 87 | 1021.0 |
| 20260901222333 | 58 | 210 | 0.0 | 0.9 | 0.00 | 0.00 | 0.00 | 87 | 1021.0 |
| 20260901221827 | 58 | 210 | 0.0 | 0.9 | 0.00 | 0.00 | 0.00 | 87 | 1020.9 |
| 20260901221330 | 58 | 211 | 0.0 | 0.9 | 0.00 | 0.00 | 0.00 | 87 | 1021.0 |
| 20260901220817 | 58 | 210 | 0.0 | 0.9 | 0.00 | 0.00 | 0.00 | 87 | 1020.9 |
| 20260901220321 | 59 | 211 | 0.0 | 0.9 | 0.00 | 0.00 | 0.00 | 87 | 1020.8 |
| 20260901215827 | 59 | 212 | 0.0 | 0.9 | 0.00 | 0.00 | 0.00 | 87 | 1020.8 |
| 20260901215320 | 59 | 211 | 0.0 | 0.9 | 0.00 | 0.00 | 0.00 | 87 | 1020.9 |
| 20260901214815 | 59 | 210 | 0.0 | 0.9 | 0.00 | 0.00 | 0.00 | 87 | 1020.8 |
| 20260901214311 | 59 | 211 | 0.0 | 0.9 | 0.00 | 0.00 | 0.00 | 87 | 1020.9 |
| 20260901213826 | 59 | 303 | 0.0 | 0.9 | 0.00 | 0.00 | 0.00 | 86 | 1021.0 |
| 20260901213329 | 59 | 304 | 0.0 | 0.9 | 0.00 | 0.00 | 0.00 | 86 | 1021.0 |
| 20260901212823 | 59 | 304 | 0.0 | 0.9 | 0.00 | 0.00 | 0.00 | 86 | 1021.0 |
| 20260901212337 | 60 | 303 | 0.0 | 0.0 | 0.00 | 0.00 | 0.00 | 86 | 1021.0 |
| 20260901211832 | 60 | 303 | 0.0 | 0.0 | 0.00 | 0.00 | 0.00 | 85 | 1021.0 |
| 20260901211332 | 60 | 303 | 0.0 | 0.9 | 0.00 | 0.00 | 0.00 | 85 | 1020.9 |
| 20260901210847 | 61 | 303 | 0.9 | 0.9 | 0.00 | 0.00 | 0.00 | 85 | 1020.9 |
| 20260901210339 | 61 | 303 | 0.0 | 0.0 | 0.00 | 0.00 | 0.00 | 84 | 1021.1 |
| 20260901205812 | 61 | 304 | 0.0 | 0.0 | 0.00 | 0.00 | 0.00 | 83 | 1021.4 |
| 20260901205327 | 61 | 304 | 0.0 | 0.0 | 0.00 | 0.00 | 0.00 | 83 | 1021.4 |
| 20260901204821 | 61 | 303 | 0.0 | 0.0 | 0.00 | 0.00 | 0.00 | 83 | 1021.4 |
| 20260901204317 | 61 | 304 | 0.0 | 0.0 | 0.00 | 0.00 | 0.00 | 83 | 1021.5 |
| 20260901203830 | 61 | 303 | 0.0 | 0.0 | 0.00 | 0.00 | 0.00 | 82 | 1021.5 |
| 20260901203353 | 61 | 304 | 0.0 | 0.0 | 0.00 | 0.00 | 0.00 | 82 | 1021.4 |
| 20260901202824 | 62 | 303 | 0.0 | 0.0 | 0.00 | 0.00 | 0.00 | 81 | 1021.4 |
| 20260901202317 | 62 | 303 | 0.0 | 0.0 | 0.00 | 0.00 | 0.00 | 81 | 1021.4 |
| 20260901201813 | 62 | 303 | 0.0 | 0.0 | 0.00 | 0.00 | 0.00 | 80 | 1021.4 |
| 20260901201336 | 62 | 304 | 0.0 | 0.9 | 0.00 | 0.00 | 0.00 | 80 | 1021.3 |
| 20260901200826 | 63 | 303 | 0.0 | 1.7 | 0.00 | 0.00 | 0.00 | 79 | 1021.3 |
| 20260901200321 | 63 | 304 | 0.0 | 1.7 | 0.00 | 0.00 | 0.00 | 79 | 1021.2 |
| 20260901195833 | 63 | 304 | 0.9 | 1.7 | 0.00 | 0.00 | 0.00 | 79 | 1021.2 |
| 20260901195320 | 63 | 304 | 0.0 | 1.7 | 0.00 | 0.00 | 0.00 | 79 | 1021.3 |
| 20260901194822 | 63 | 304 | 0.0 | 1.7 | 0.00 | 0.00 | 0.00 | 79 | 1021.2 |
| 20260901194318 | 63 | 304 | 0.9 | 1.7 | 0.00 | 0.00 | 0.00 | 79 | 1021.1 |
| 20260901193831 | 63 | 304 | 0.0 | 1.7 | 0.00 | 0.00 | 0.00 | 78 | 1021.1 |
| 20260901193327 | 63 | 303 | 0.0 | 1.7 | 0.00 | 0.00 | 0.00 | 78 | 1021.1 |
| 20260901192845 | 64 | 308 | 0.0 | 0.9 | 0.00 | 0.00 | 0.00 | 78 | 1021.1 |
| 20260901192336 | 64 | 308 | 0.0 | 0.9 | 0.00 | 0.00 | 0.00 | 77 | 1021.0 |
| 20260901191830 | 64 | 308 | 0.0 | 1.7 | 0.00 | 0.00 | 0.00 | 77 | 1021.0 |
| 20260901191353 | 64 | 308 | 0.0 | 1.7 | 0.00 | 0.00 | 0.00 | 76 | 1021.0 |
| 20260901190813 | 65 | 308 | 0.9 | 2.6 | 0.00 | 0.00 | 0.00 | 76 | 1020.9 |
| 20260901190315 | 65 | 308 | 0.0 | 3.5 | 0.00 | 0.00 | 0.00 | 76 | 1020.8 |
| 20260901185815 | 65 | 307 | 1.7 | 3.5 | 0.00 | 0.00 | 0.00 | 75 | 1020.9 |
| 20260901185328 | 65 | 309 | 0.0 | 3.5 | 0.00 | 0.00 | 0.00 | 75 | 1020.8 |
| 20260901184832 | 65 | 308 | 0.9 | 5.2 | 0.00 | 0.00 | 0.00 | 75 | 1020.9 |
| 20260901184346 | 65 | 328 | 2.6 | 5.2 | 0.00 | 0.00 | 0.00 | 75 | 1020.9 |
| 20260901183817 | 66 | 323 | 0.9 | 2.6 | 0.00 | 0.00 | 0.00 | 75 | 1020.8 |
| 20260901183313 | 66 | 268 | 0.0 | 3.5 | 0.00 | 0.00 | 0.00 | 75 | 1020.7 |
| 20260901182833 | 66 | 268 | 0.9 | 3.5 | 0.00 | 0.00 | 0.00 | 75 | 1020.7 |
| 20260901182319 | 66 | 312 | 0.9 | 3.5 | 0.00 | 0.00 | 0.00 | 75 | 1020.7 |
| 20260901181816 | 66 | 288 | 0.9 | 5.2 | 0.00 | 0.00 | 0.00 | 75 | 1020.6 |
| 20260901181311 | 66 | 317 | 0.9 | 5.2 | 0.00 | 0.00 | 0.00 | 74 | 1020.6 |
| 20260901180822 | 66 | 309 | 0.9 | 7.0 | 0.00 | 0.00 | 0.00 | 74 | 1020.7 |
| 20260901180318 | 66 | 321 | 3.5 | 7.0 | 0.00 | 0.00 | 0.00 | 73 | 1020.8 |
| 20260901175812 | 67 | 342 | 1.7 | 4.3 | 0.00 | 0.00 | 0.00 | 73 | 1020.8 |
| 20260901175326 | 67 | 253 | 0.9 | 4.3 | 0.00 | 0.00 | 0.00 | 73 | 1020.8 |
| 20260901174822 | 67 | 314 | 1.7 | 3.5 | 0.00 | 0.00 | 0.00 | 73 | 1020.7 |
| 20260901174317 | 67 | 300 | 0.9 | 4.3 | 0.00 | 0.00 | 0.00 | 73 | 1020.6 |
| 20260901173851 | 67 | 277 | 1.7 | 5.2 | 0.00 | 0.00 | 0.00 | 73 | 1020.7 |
| 20260901173313 | 68 | 311 | 1.7 | 6.1 | 0.00 | 0.00 | 0.00 | 73 | 1020.6 |
| 20260901172825 | 68 | 298 | 2.6 | 6.1 | 0.00 | 0.00 | 0.00 | 73 | 1020.6 |
| 20260901172339 | 68 | 1 | 2.6 | 8.7 | 0.00 | 0.00 | 0.00 | 72 | 1020.7 |
| 20260901171819 | 68 | 319 | 3.5 | 8.7 | 0.00 | 0.00 | 0.00 | 72 | 1020.6 |
| 20260901171315 | 68 | 298 | 3.5 | 6.1 | 0.00 | 0.00 | 0.00 | 72 | 1020.7 |
| 20260901170827 | 68 | 291 | 2.6 | 5.2 | 0.00 | 0.00 | 0.00 | 72 | 1020.7 |
| 20260901170323 | 68 | 309 | 1.7 | 4.3 | 0.00 | 0.00 | 0.00 | 72 | 1020.7 |
| 20260901165817 | 69 | 22 | 0.9 | 5.2 | 0.00 | 0.00 | 0.00 | 72 | 1020.7 |
| 20260901165321 | 69 | 300 | 0.9 | 5.2 | 0.00 | 0.00 | 0.00 | 71 | 1020.7 |
| 20260901164824 | 69 | 316 | 0.9 | 5.2 | 0.00 | 0.00 | 0.00 | 71 | 1020.6 |
| 20260901164319 | 69 | 309 | 1.7 | 4.3 | 0.00 | 0.00 | 0.00 | 70 | 1020.6 |
| 20260901163833 | 69 | 297 | 1.7 | 4.3 | 0.00 | 0.00 | 0.00 | 70 | 1020.5 |
| 20260901163330 | 70 | 316 | 0.9 | 5.2 | 0.00 | 0.00 | 0.00 | 69 | 1020.5 |
| 20260901162850 | 70 | 252 | 1.7 | 5.2 | 0.00 | 0.00 | 0.00 | 68 | 1020.5 |
| 20260901162316 | 70 | 240 | 1.7 | 6.1 | 0.00 | 0.00 | 0.00 | 68 | 1020.5 |
| 20260901161816 | 70 | 294 | 3.5 | 7.8 | 0.00 | 0.00 | 0.00 | 68 | 1020.6 |
| 20260901161338 | 70 | 314 | 3.5 | 7.8 | 0.00 | 0.00 | 0.00 | 68 | 1020.5 |
| 20260901160842 | 71 | 328 | 3.5 | 6.1 | 0.00 | 0.00 | 0.00 | 67 | 1020.6 |
| 20260901160324 | 71 | 314 | 0.0 | 6.1 | 0.00 | 0.00 | 0.00 | 68 | 1020.6 |
| 20260901155837 | 70 | 218 | 1.7 | 6.1 | 0.00 | 0.00 | 0.00 | 67 | 1020.5 |
| 20260901155342 | 71 | 302 | 1.7 | 7.0 | 0.00 | 0.00 | 0.00 | 67 | 1020.5 |
| 20260901154823 | 71 | 240 | 0.9 | 3.5 | 0.00 | 0.00 | 0.00 | 67 | 1020.5 |
| 20260901154339 | 71 | 234 | 0.9 | 6.1 | 0.00 | 0.00 | 0.00 | 66 | 1020.5 |
| 20260901153830 | 71 | 309 | 3.5 | 6.1 | 0.00 | 0.00 | 0.00 | 67 | 1020.5 |
| 20260901153333 | 70 | 280 | 2.6 | 6.1 | 0.00 | 0.00 | 0.00 | 66 | 1020.5 |
| 20260901152845 | 70 | 344 | 3.5 | 6.1 | 0.00 | 0.00 | 0.00 | 67 | 1020.5 |
| 20260901152318 | 71 | 319 | 1.7 | 5.2 | 0.00 | 0.00 | 0.00 | 67 | 1020.6 |
| 20260901151814 | 71 | 328 | 1.7 | 6.1 | 0.00 | 0.00 | 0.00 | 67 | 1020.5 |
| 20260901151316 | 70 | 328 | 1.7 | 6.1 | 0.00 | 0.00 | 0.00 | 67 | 1020.5 |
| 20260901150830 | 70 | 225 | 2.6 | 7.0 | 0.00 | 0.00 | 0.00 | 67 | 1020.5 |
| 20260901150323 | 71 | 322 | 1.7 | 7.0 | 0.00 | 0.00 | 0.00 | 68 | 1020.5 |
| 20260901145837 | 70 | 249 | 1.7 | 7.0 | 0.00 | 0.00 | 0.00 | 68 | 1020.6 |
| 20260901145322 | 70 | 301 | 1.7 | 7.0 | 0.00 | 0.00 | 0.00 | 68 | 1020.6 |
| 20260901144825 | 70 | 339 | 0.9 | 10.4 | 0.00 | 0.00 | 0.00 | 68 | 1020.6 |
| 20260901144321 | 70 | 302 | 2.6 | 6.1 | 0.00 | 0.00 | 0.00 | 68 | 1020.6 |
| 20260901143814 | 70 | 314 | 1.7 | 7.0 | 0.00 | 0.00 | 0.00 | 68 | 1020.6 |
| 20260901143326 | 71 | 291 | 0.9 | 4.3 | 0.00 | 0.00 | 0.00 | 68 | 1020.6 |
| 20260901142829 | 71 | 43 | 0.9 | 6.1 | 0.00 | 0.00 | 0.00 | 67 | 1020.6 |
| 20260901142316 | 71 | 327 | 2.6 | 6.1 | 0.00 | 0.00 | 0.00 | 66 | 1020.7 |
| 20260901141817 | 71 | 326 | 0.9 | 10.4 | 0.00 | 0.00 | 0.00 | 67 | 1020.7 |
| 20260901141312 | 71 | 300 | 2.6 | 10.4 | 0.00 | 0.00 | 0.00 | 67 | 1020.7 |
| 20260901140827 | 71 | 266 | 5.2 | 8.7 | 0.00 | 0.00 | 0.00 | 66 | 1020.7 |
| 20260901140322 | 72 | 72 | 2.6 | 7.0 | 0.00 | 0.00 | 0.00 | 66 | 1020.6 |
| 20260901135815 | 71 | 349 | 0.9 | 8.7 | 0.00 | 0.00 | 0.00 | 68 | 1020.6 |
| 20260901135348 | 71 | 347 | 1.7 | 8.7 | 0.00 | 0.00 | 0.00 | 68 | 1020.6 |
| 20260901134822 | 71 | 321 | 4.3 | 7.0 | 0.00 | 0.00 | 0.00 | 66 | 1020.6 |
| 20260901134326 | 71 | 335 | 1.7 | 9.6 | 0.00 | 0.00 | 0.00 | 67 | 1020.6 |
| 20260901133833 | 71 | 214 | 3.5 | 9.6 | 0.00 | 0.00 | 0.00 | 66 | 1020.6 |
| 20260901133316 | 71 | 321 | 1.7 | 8.7 | 0.00 | 0.00 | 0.00 | 68 | 1020.6 |
| 20260901132830 | 71 | 315 | 3.5 | 8.7 | 0.00 | 0.00 | 0.00 | 67 | 1020.6 |
| 20260901132326 | 71 | 356 | 3.5 | 7.0 | 0.00 | 0.00 | 0.00 | 66 | 1020.6 |
| 20260901131847 | 71 | 309 | 4.3 | 7.0 | 0.00 | 0.00 | 0.00 | 66 | 1020.6 |
| 20260901131349 | 71 | 318 | 3.5 | 7.0 | 0.00 | 0.00 | 0.00 | 65 | 1020.7 |
| 20260901130815 | 71 | 277 | 2.6 | 9.6 | 0.00 | 0.00 | 0.00 | 67 | 1020.7 |
| 20260901130311 | 71 | 285 | 4.3 | 9.6 | 0.00 | 0.00 | 0.00 | 66 | 1020.7 |
| 20260901125821 | 72 | 267 | 3.5 | 7.8 | 0.00 | 0.00 | 0.00 | 64 | 1020.6 |
| 20260901125316 | 72 | 75 | 0.9 | 4.3 | 0.00 | 0.00 | 0.00 | 68 | 1020.7 |
| 20260901124812 | 71 | 328 | 0.9 | 7.8 | 0.00 | 0.00 | 0.00 | 69 | 1020.7 |
| 20260901124335 | 71 | 297 | 4.3 | 10.4 | 0.00 | 0.00 | 0.00 | 67 | 1020.8 |
| 20260901123823 | 71 | 318 | 3.5 | 8.7 | 0.00 | 0.00 | 0.00 | 67 | 1020.8 |
| 20260901123325 | 70 | 280 | 3.5 | 8.7 | 0.00 | 0.00 | 0.00 | 67 | 1020.8 |
| 20260901122821 | 70 | 248 | 2.6 | 12.2 | 0.00 | 0.00 | 0.00 | 69 | 1020.7 |
| 20260901122337 | 70 | 283 | 1.7 | 13.0 | 0.00 | 0.00 | 0.00 | 69 | 1020.7 |
| 20260901121833 | 70 | 293 | 3.5 | 11.3 | 0.00 | 0.00 | 0.00 | 68 | 1020.8 |
| 20260901121314 | 70 | 246 | 6.1 | 11.3 | 0.00 | 0.00 | 0.00 | 68 | 1020.7 |
| 20260901120830 | 70 | 333 | 3.5 | 7.8 | 0.00 | 0.00 | 0.00 | 68 | 1020.8 |
| 20260901120325 | 70 | 324 | 2.6 | 8.7 | 0.00 | 0.00 | 0.00 | 70 | 1020.9 |
| 20260901115813 | 70 | 309 | 3.5 | 7.8 | 0.00 | 0.00 | 0.00 | 69 | 1020.8 |
| 20260901115328 | 70 | 328 | 0.9 | 10.4 | 0.00 | 0.00 | 0.00 | 71 | 1020.8 |
| 20260901114846 | 69 | 289 | 3.5 | 10.4 | 0.00 | 0.00 | 0.00 | 71 | 1020.9 |
| 20260901114322 | 69 | 281 | 3.5 | 10.4 | 0.00 | 0.00 | 0.00 | 70 | 1020.8 |
| 20260901113816 | 70 | 294 | 1.7 | 5.2 | 0.00 | 0.00 | 0.00 | 71 | 1020.9 |
| 20260901113312 | 70 | 294 | 0.9 | 6.1 | 0.00 | 0.00 | 0.00 | 71 | 1020.8 |
| 20260901112835 | 70 | 305 | 1.7 | 6.1 | 0.00 | 0.00 | 0.00 | 70 | 1020.9 |
| 20260901112322 | 70 | 273 | 0.9 | 7.0 | 0.00 | 0.00 | 0.00 | 71 | 1020.8 |
| 20260901111826 | 70 | 314 | 1.7 | 7.8 | 0.00 | 0.00 | 0.00 | 73 | 1020.8 |
| 20260901111321 | 70 | 305 | 0.9 | 7.0 | 0.00 | 0.00 | 0.00 | 74 | 1020.9 |
| 20260901110815 | 69 | 234 | 0.9 | 4.3 | 0.00 | 0.00 | 0.00 | 75 | 1020.8 |
| 20260901110358 | 68 | 214 | 0.9 | 6.1 | 0.00 | 0.00 | 0.00 | 78 | 1020.9 |
| 20260901105822 | 68 | 324 | 1.7 | 6.1 | 0.00 | 0.00 | 0.00 | 75 | 1020.8 |
| 20260901105317 | 68 | 335 | 2.6 | 5.2 | 0.00 | 0.00 | 0.00 | 77 | 1020.9 |
| 20260901104813 | 68 | 315 | 0.9 | 6.1 | 0.00 | 0.00 | 0.00 | 77 | 1020.9 |
| 20260901104335 | 68 | 297 | 3.5 | 8.7 | 0.00 | 0.00 | 0.00 | 76 | 1020.9 |
| 20260901103842 | 68 | 288 | 5.2 | 8.7 | 0.00 | 0.00 | 0.00 | 75 | 1020.8 |
| 20260901103324 | 68 | 304 | 3.5 | 7.8 | 0.00 | 0.00 | 0.00 | 75 | 1020.9 |
| 20260901102821 | 69 | 358 | 4.3 | 8.7 | 0.00 | 0.00 | 0.00 | 75 | 1020.9 |
| 20260901102316 | 70 | 304 | 3.5 | 13.0 | 0.00 | 0.00 | 0.00 | 73 | 1020.7 |
| 20260901101813 | 71 | 290 | 7.8 | 13.0 | 0.00 | 0.00 | 0.00 | 70 | 1020.7 |
| 20260901101315 | 74 | 257 | 3.5 | 7.0 | 0.00 | 0.00 | 0.00 | 68 | 1020.6 |
| 20260901100851 | 74 | 68 | 1.7 | 6.1 | 0.00 | 0.00 | 0.00 | 70 | 1020.6 |
| 20260901100327 | 73 | 85 | 1.7 | 4.3 | 0.00 | 0.00 | 0.00 | 71 | 1020.6 |
| 20260901095822 | 73 | 168 | 1.7 | 5.2 | 0.00 | 0.00 | 0.00 | 72 | 1020.7 |
| 20260901095339 | 73 | 208 | 1.7 | 5.2 | 0.00 | 0.00 | 0.00 | 72 | 1020.7 |
| 20260901094852 | 72 | 187 | 1.7 | 5.2 | 0.00 | 0.00 | 0.00 | 74 | 1020.7 |
| 20260901094334 | 72 | 259 | 0.9 | 4.3 | 0.00 | 0.00 | 0.00 | 78 | 1020.7 |
| 20260901093839 | 71 | 318 | 1.7 | 4.3 | 0.00 | 0.00 | 0.00 | 77 | 1020.6 |
| 20260901093321 | 71 | 203 | 0.9 | 4.3 | 0.00 | 0.00 | 0.00 | 77 | 1020.6 |
| 20260901092816 | 71 | 218 | 1.7 | 4.3 | 0.00 | 0.00 | 0.00 | 77 | 1020.5 |
| 20260901092330 | 71 | 135 | 0.9 | 5.2 | 0.00 | 0.00 | 0.00 | 79 | 1020.5 |
| 20260901091831 | 71 | 183 | 1.7 | 5.2 | 0.00 | 0.00 | 0.00 | 78 | 1020.5 |
| 20260901091327 | 70 | 282 | 1.7 | 5.2 | 0.00 | 0.00 | 0.00 | 78 | 1020.5 |
| 20260901090813 | 70 | 252 | 0.9 | 3.5 | 0.00 | 0.00 | 0.00 | 81 | 1020.4 |
| 20260901090316 | 69 | 252 | 0.9 | 4.3 | 0.00 | 0.00 | 0.00 | 84 | 1020.5 |
| 20260901085844 | 68 | 105 | 1.7 | 5.2 | 0.00 | 0.00 | 0.00 | 82 | 1020.5 |
| 20260901085311 | 68 | 300 | 2.6 | 6.1 | 0.00 | 0.00 | 0.00 | 82 | 1020.4 |
| 20260901084835 | 68 | 347 | 2.6 | 6.1 | 0.00 | 0.00 | 0.00 | 83 | 1020.4 |
| 20260901084310 | 68 | 301 | 2.6 | 5.2 | 0.00 | 0.00 | 0.00 | 82 | 1020.4 |
| 20260901083827 | 68 | 243 | 0.9 | 1.7 | 0.00 | 0.00 | 0.00 | 85 | 1020.4 |
| 20260901083330 | 68 | 124 | 0.9 | 4.3 | 0.00 | 0.00 | 0.00 | 85 | 1020.4 |
| 20260901082823 | 68 | 269 | 2.6 | 4.3 | 0.00 | 0.00 | 0.00 | 85 | 1020.3 |
| 20260901082311 | 67 | 243 | 0.0 | 3.5 | 0.00 | 0.00 | 0.00 | 88 | 1020.4 |
| 20260901081857 | 66 | 257 | 0.9 | 3.5 | 0.00 | 0.00 | 0.00 | 88 | 1020.3 |
| 20260901081313 | 65 | 268 | 0.0 | 1.7 | 0.00 | 0.00 | 0.00 | 89 | 1020.2 |
| 20260901080817 | 65 | 268 | 0.0 | 1.7 | 0.00 | 0.00 | 0.00 | 89 | 1020.2 |
| 20260901080319 | 64 | 267 | 0.0 | 1.7 | 0.00 | 0.00 | 0.00 | 89 | 1020.2 |
| 20260901075831 | 64 | 288 | 0.0 | 1.7 | 0.00 | 0.00 | 0.00 | 90 | 1020.2 |
| 20260901075333 | 64 | 172 | 0.0 | 1.7 | 0.00 | 0.00 | 0.00 | 90 | 1020.0 |
| 20260901074815 | 64 | 150 | 0.0 | 1.7 | 0.00 | 0.00 | 0.00 | 90 | 1020.0 |
| 20260901074311 | 64 | 200 | 0.0 | 1.7 | 0.00 | 0.00 | 0.00 | 91 | 1019.9 |
| 20260901073826 | 63 | 188 | 0.0 | 1.7 | 0.00 | 0.00 | 0.00 | 91 | 1019.9 |
| 20260901073322 | 63 | 207 | 0.0 | 1.7 | 0.00 | 0.00 | 0.00 | 91 | 1019.8 |
| 20260901072846 | 63 | 170 | 0.0 | 1.7 | 0.00 | 0.00 | 0.00 | 91 | 1019.7 |
| 20260901072320 | 63 | 170 | 0.9 | 1.7 | 0.00 | 0.00 | 0.00 | 91 | 1019.6 |
| 20260901071813 | 63 | 198 | 0.0 | 1.7 | 0.00 | 0.00 | 0.00 | 91 | 1019.7 |
| 20260901071336 | 62 | 199 | 0.0 | 2.6 | 0.00 | 0.00 | 0.00 | 91 | 1019.6 |
| 20260901070851 | 62 | 210 | 0.9 | 2.6 | 0.00 | 0.00 | 0.00 | 91 | 1019.6 |
| 20260901070325 | 61 | 211 | 0.0 | 1.7 | 0.00 | 0.00 | 0.00 | 91 | 1019.5 |
| 20260901065821 | 61 | 234 | 0.9 | 1.7 | 0.00 | 0.00 | 0.00 | 91 | 1019.5 |
| 20260901065328 | 61 | 234 | 0.9 | 1.7 | 0.00 | 0.00 | 0.00 | 91 | 1019.5 |
| 20260901064830 | 61 | 247 | 0.0 | 1.7 | 0.00 | 0.00 | 0.00 | 91 | 1019.5 |
| 20260901064346 | 61 | 246 | 0.0 | 1.7 | 0.00 | 0.00 | 0.00 | 91 | 1019.4 |
| 20260901063820 | 61 | 252 | 284.2 | 1.7 | 0.00 | 0.00 | 0.00 | 91 | 1019.4 |
| 20260901063316 | 0 | 0.0 | 0.0 | 0.00 | 0.00 | 0.00 | 1019.2 | ||
| 20260901062824 | 0 | 0.0 | 0.0 | 0.00 | 0.00 | 0.00 | 1019.2 | ||
| 20260901062331 | 0 | 0.0 | 0.0 | 0.00 | 0.00 | 0.00 | 1019.3 | ||
| 20260901061851 | 0 | 0.0 | 0.0 | 0.00 | 0.00 | 0.00 | 1019.3 | ||
| 20260901061313 | 0 | 0.0 | 0.0 | 0.00 | 0.00 | 0.00 | 1019.3 | ||
| 20260901060814 | 0 | 0.0 | 0.0 | 0.00 | 0.00 | 0.00 | 1019.2 | ||
| 20260901060316 | 0 | 0.0 | 0.0 | 0.00 | 0.00 | 0.00 | 1019.2 | ||
| 20260901055829 | 0 | 0.0 | 0.0 | 0.00 | 0.00 | 0.00 | 1019.1 | ||
| 20260901055315 | 0 | 0.0 | 0.0 | 0.00 | 0.00 | 0.00 | 1019.1 | ||
| 20260901054924 | 0 | 0.0 | 0.0 | 0.00 | 0.00 | 0.00 | 1019.0 | ||
| 20260901054324 | 0 | 0.0 | 0.0 | 0.00 | 0.00 | 0.00 | 1018.9 | ||
| 20260901053811 | 0 | 0.0 | 0.0 | 0.00 | 0.00 | 0.00 | 1018.8 | ||
| 20260901053314 | 0 | 0.0 | 0.0 | 0.00 | 0.00 | 0.00 | 1018.8 | ||
| 20260901052350 | 0 | 0.0 | 0.0 | 0.00 | 0.00 | 0.00 | 1018.8 | ||
| 20260901051812 | 0 | 0.0 | 0.0 | 0.00 | 0.00 | 0.00 | 1018.7 | ||
| 20260901051335 | 0 | 0.0 | 0.0 | 0.00 | 0.00 | 0.00 | 1018.7 | ||
| 20260901050848 | 0 | 0.0 | 0.0 | 0.00 | 0.00 | 0.00 | 1018.7 | ||
| 20260901045313 | 0 | 0.0 | 0.0 | 0.00 | 0.00 | 0.00 | 1018.7 | ||
| 20260901044836 | 0 | 0.0 | 0.0 | 0.00 | 0.00 | 0.00 | 1018.6 |